Regional Weather Roundup
Issued by NWS Northern Indiana

Home | Current Version | Previous Version | Graphics & Text | Print | Product List | Glossary On
Versions: 1 2 3 4 5 6 7 8 9 10 11 12 13 14 15 16 17 18 19 20 21 22 23 24 25 26 27 28 29 30 31 32 33 34 35 36 37 38 39 40 41 42 43 44 45 46 47 48 49 50
000
ASUS43 KIWX 170300
RWRIWX

KIWX WEATHER ROUNDUP
NATIONAL WEATHER SERVICE NORTHERN INDIANA
1000 PM EST TUE JAN 16 2018

NOTE: "FAIR" INDICATES FEW OR NO CLOUDS BELOW 12,000 FEET WITH NO
SIGNIFICANT WEATHER AND/OR OBSTRUCTIONS TO VISIBILITY.

* THESE STATIONS ARE NOT UNDER NWS QUALITY CONTROL. THEY ALSO MAY NOT
  REPORT WEATHER SUCH AS PRECIPITATION OR FOG.

INZ001>027-170400-
NORTHERN INDIANA

CITY           SKY/WX    TMP DP  RH WIND       PRES   REMARKS
GARY*          PTCLDY    18  10  73 W12       30.53R WCI   5
SOUTH BEND     CLOUDY     9   6  88 S3        30.49R
GOSHEN         MOCLDY     4   1  88 S7        30.49R WCI  -8
MONTICELLO*    LGT SNOW   8   4  83 SW9       30.53S WCI  -5
FORT WAYNE     MOCLDY     8   4  83 W8        30.51S WCI  -4
PERU/GRISSOM   FLURRIES   9   5  85 W10       30.51S WCI  -6

$$
INZ028>050-170400-
CENTRAL INDIANA

CITY           SKY/WX    TMP DP  RH WIND       PRES   REMARKS
LAFAYETTE      CLOUDY     7   4  87 W7        30.56F WCI  -5
MUNCIE*        CLOUDY     8   1  73 SW9       30.52S WCI  -5
INDIANAPOLIS   FLURRIES   6   1  80 W13       30.57S WCI -10

$$
MIZ043>046-050>051-056>058-064>065-071>073-077>080-170400-
SOUTHWEST LOWER MICHIGAN

CITY           SKY/WX    TMP DP  RH WIND       PRES   REMARKS
BATTLE CREEK   FAIR       3   0  87 SW5       30.45R WCI  -6
BENTON HARBOR  CLOUDY    12   8  84 S3        30.49R FOG
COLDWATER*     FAIR       2  -1  87 SW5       30.46R WCI  -7
HILLSDALE*     CLOUDY     3   0  85 W3        30.43R
HOLLAND        CLOUDY     6   3  87 CALM      30.48R
GRAND RAPIDS   MOCLDY    14   9  80 NW7       30.45S WCI   4
KALAMAZOO      FAIR       5   1  83 SW3       30.47R
STURGIS*       FAIR       2  -1  86 SW5       30.46F WCI  -7
THREE RIVERS*    N/A      3   0  84 SW6       30.48R WCI  -8

$$
OHZ001>008-015>018-024>025-170400-
NORTHWEST OHIO

CITY           SKY/WX    TMP DP  RH WIND       PRES   REMARKS
DEFIANCE       FAIR       1  -3  83 SW5       30.51S WCI  -9
FINDLAY        FLURRIES   6  -2  69 W10       30.49S WCI  -9
TOLEDO EXPRESS FAIR       2  -1  88 SW8       30.50R WCI -12
TOLEDO METCALF FAIR       2  -3  80 SW9       30.51R WCI -13
LIMA           CLOUDY     6   1  80 W10       30.49S WCI  -9

$$
AND FOR LAKE MICHIGAN COASTAL AND OPEN LAKE BUOY OBSERVATIONS

STATION/POSITION TEMP    WIND        PRES    VSBY  WAVE
                 AIR SEA DIR/SP/G                  HT/PER
                 (F)     (DEG/KT/KT) (MB)    (MI)  (FT/S)
CALUMET HARBOR    18     270/  7/ 12 1032.7R
MICHIGAN CITY            330/ 23/ 25   N/A
BURNS HARBOR      23     300/ 19/ 24 1032.5R
SAINT JOSEPH      13     130/  3/  7 1032.2

$$
&&



USA.gov is the U.S. government's official web portal to all federal, state and local government web resources and services.